Wind_Speed
12 12 12 12 12 11 12 12 12 11 11 13 12 13 15 14 14 15 14 13 15 13 9 7 8 7 9 10 7 4 4 5 5 6 7 7 7 8 8 7 7 6 6 6 5 5 5 5 6 6 6 5 5 5 5 5 5 5 5 4 5 6 7 7 7 7 8 9 9 9 8 8 7 6 6 6 6 5 5 5 6 6 6 6 6
11 11 11 12 12 12 13 12 11 11 11 13 13 13 13 13 15 15 12 12 16 16 10 8 7 6 8 10 9 5 4 5 5 6 7 8 8 7 8 8 8 8 7 7 6 6 6 6 6 6 6 5 5 5 5 5 5 5 5 5 6 7 7 8 8 8 9 9 8 8 7 7 6 6 5 5 5 5 5 4 5 5 5 5 6
10 10 11 11 11 10 10 11 11 12 11 12 12 12 12 13 14 13 11 11 15 15 11 10 8 7 8 8 8 7 5 5 6 6 5 6 7 6 7 8 7 8 7 7 6 6 6 6 6 5 5 5 6 6 5 5 5 6 6 6 7 7 8 8 8 8 8 8 8 7 6 6 5 5 5 5 4 4 4 4 4 4 4 5 5
12 11 11 11 11 10 8 9 11 10 11 11 11 11 11 12 13 12 12 12 12 11 9 10 10 9 9 8 8 7 5 5 6 4 1 3 7 6 7 7 7 7 6 6 6 6 6 6 5 5 5 6 6 6 5 5 6 6 7 7 7 7 7 7 8 8 7 7 7 6 5 5 5 4 4 4 4 4 4 5 5 5 5 5 6
14 13 13 12 13 12 9 9 9 9 11 11 11 11 11 12 12 11 11 11 10 8 8 8 9 9 10 9 9 8 7 8 8 6 1 2 4 5 6 5 6 6 7 8 7 7 6 5 5 5 5 6 6 6 6 6 6 6 7 7 7 7 7 7 7 7 6 6 6 5 5 5 4 4 5 5 5 5 5 6 6 6 7 7 7
15 15 15 14 14 13 11 10 8 9 12 11 10 11 10 11 11 9 7 9 9 8 9 9 7 9 9 8 8 8 8 9 8 6 5 2 1 3 5 4 5 5 5 6 7 8 6 5 5 5 5 5 6 6 6 6 6 7 6 6 7 6 6 6 6 6 6 5 5 5 5 5 5 6 6 6 6 7 7 7 8 8 8 9 9
14 15 15 13 13 13 12 12 11 10 11 10 9 9 10 10 10 9 7 8 7 6 8 8 7 7 7 7 7 7 8 8 7 6 7 6 3 1 1 3 4 3 4 5 8 10 9 8 7 7 7 7 7 7 7 7 7 6 6 6 6 6 6 6 5 5 5 5 5 6 6 6 7 7 7 8 8 9 10 10 10 11 11 11 11
13 14 15 12 11 12 12 13 13 12 12 11 10 9 10 9 10 11 9 9 8 7 8 7 7 7 7 7 6 7 7 7 7 6 6 6 5 4 2 1 3 4 5 7 9 11 10 10 11 10 10 9 8 8 7 7 7 6 6 6 6 6 6 6 6 6 6 6 6 7 7 8 8 9 9 10 11 11 12 12 13 13 13 13 13
13 14 15 12 10 10 11 12 12 13 13 11 10 9 9 9 11 11 10 10 9 8 7 6 7 7 7 7 6 6 6 7 7 5 5 5 4 2 2 4 4 6 7 9 12 11 9 11 13 13 11 10 9 8 8 7 7 7 6 6 6 6 6 6 7 7 7 8 8 9 9 10 10 11 12 13 13 14 14 15 15 15 15 15 15
12 13 13 12 10 9 11 11 11 12 11 10 10 8 8 9 11 12 11 11 9 8 6 6 7 6 6 6 6 6 5 6 7 4 5 6 5 3 4 7 7 7 6 6 9 10 7 9 12 13 12 11 9 9 8 7 7 6 7 7 7 7 8 8 8 8 9 9 10 11 11 12 13 14 14 15 15 15 16 16 16 16 16 17 17
11 11 12 12 10 10 10 10 10 10 9 9 8 7 8 9 10 10 10 11 10 8 7 7 7 6 6 4 5 6 4 5 5 6 7 7 6 6 5 7 6 9 9 3 4 9 8 8 10 11 11 11 10 9 8 8 8 7 8 8 9 9 9 9 9 10 10 11 12 13 13 14 15 15 15 16 16 16 16 16 16 16 16 16 16
11 11 11 12 10 10 10 9 9 9 9 8 5 6 8 9 11 10 9 10 10 8 6 7 7 6 6 4 4 5 5 7 7 7 7 5 5 7 5 6 6 7 8 5 2 7 10 9 10 10 9 9 9 8 8 8 9 9 9 10 10 10 10 11 11 12 12 13 13 14 15 15 16 16 16 15 15 15 15 15 15 15 16 16 16
11 11 11 11 10 10 10 9 9 10 10 8 6 7 7 9 10 10 10 9 9 8 6 8 7 6 6 4 6 6 5 8 10 8 7 4 5 7 5 5 8 5 6 7 4 4 10 11 10 8 6 8 8 8 9 10 10 10 11 11 11 11 12 12 13 14 14 14 15 15 15 16 16 15 15 14 14 14 13 13 14 15 16 17 17
11 10 10 10 10 10 10 10 10 10 9 8 8 8 8 9 9 9 9 7 8 8 7 8 6 5 7 5 5 4 2 3 8 9 7 5 5 6 6 6 7 5 7 10 6 3 7 7 4 2 3 7 7 7 9 11 11 11 12 12 12 12 13 14 15 15 16 16 16 16 16 15 14 14 13 13 13 13 13 15 16 17 18 17 16
10 10 10 10 10 10 10 10 10 10 8 7 8 9 9 9 8 7 7 7 8 7 6 8 6 5 7 6 3 3 2 3 6 9 7 6 6 7 8 7 5 3 5 9 7 7 1 3 4 3 6 6 4 5 7 11 12 12 12 13 13 14 14 15 16 16 17 17 16 15 14 13 13 13 13 13 13 14 16 17 18 18 16 16 16
9 10 10 9 10 10 9 9 9 9 8 8 9 10 10 9 7 7 9 8 6 5 5 6 8 7 6 6 5 3 6 6 8 9 7 7 7 7 8 7 5 5 5 6 5 5 1 6 8 8 9 8 6 6 6 10 13 13 13 13 14 15 15 16 16 17 17 16 14 13 13 13 13 13 14 14 15 17 18 18 17 15 14 15 15
9 10 10 9 10 10 9 9 9 9 9 9 10 9 9 9 7 8 10 10 8 5 5 4 5 8 7 6 5 3 4 5 6 6 5 7 7 6 8 6 5 7 7 6 5 4 1 6 9 9 9 10 10 9 6 9 13 15 15 14 15 15 15 15 15 15 14 13 12 12 13 13 13 13 14 15 16 17 17 16 13 13 13 14 14
10 10 9 9 9 10 10 10 9 9 9 10 10 9 9 8 7 8 7 9 10 7 4 4 5 10 9 8 6 4 5 7 5 3 5 9 7 7 9 3 4 9 9 5 5 5 2 4 9 9 10 9 8 9 8 8 13 15 15 14 14 13 13 13 12 12 12 12 12 13 13 13 13 13 14 15 16 16 15 13 12 12 12 13 14
10 9 9 9 9 10 10 10 10 9 10 10 10 9 9 7 7 8 5 8 12 9 5 4 5 8 7 5 3 3 6 7 4 3 4 6 7 7 9 3 3 7 7 8 6 4 2 1 5 7 8 5 5 7 6 6 10 12 12 12 13 12 11 11 11 11 11 12 12 13 13 13 13 14 15 15 15 14 12 12 12 13 13 14 16
10 9 9 9 9 10 10 10 10 10 9 10 10 9 9 8 8 9 7 9 13 12 9 6 5 4 5 5 3 4 6 3 5 7 4 2 4 6 8 6 4 5 6 9 6 3 4 3 0 2 4 5 5 4 2 6 9 11 11 12 13 12 12 12 12 12 12 12 12 12 13 13 14 15 15 14 13 12 12 12 13 13 14 15 17
10 10 10 10 9 10 10 10 10 10 9 10 10 9 10 9 9 9 7 8 10 12 12 9 6 3 6 7 6 5 4 3 8 9 3 0 3 3 5 5 6 8 8 7 3 2 5 6 5 2 3 7 8 5 4 6 11 12 11 12 13 13 14 14 13 14 13 13 13 13 13 14 15 16 15 14 13 13 13 13 14 14 14 16 17
10 10 10 10 9 10 10 10 9 9 10 9 9 9 9 9 9 8 8 8 9 11 11 9 8 5 3 5 6 6 5 6 6 3 0 1 2 2 5 5 6 7 7 5 4 3 3 6 5 3 3 3 4 7 6 6 11 14 11 10 12 13 15 16 15 15 15 14 14 14 14 15 15 16 16 15 15 15 15 14 14 14 15 16 18
10 10 10 9 9 10 9 9 9 9 10 10 9 9 9 9 9 9 8 8 9 12 10 6 7 7 3 2 5 5 4 6 4 3 5 2 3 1 3 5 8 6 5 7 6 3 2 3 2 3 2 4 4 6 5 4 10 15 10 7 11 15 16 16 16 16 16 15 15 15 15 15 15 16 16 16 16 16 16 15 15 14 15 17 19
10 10 10 10 9 9 9 9 9 9 9 9 9 9 8 8 9 9 9 8 9 11 10 7 5 5 3 1 3 3 3 4 3 4 4 5 4 2 3 4 7 4 5 7 5 2 3 4 2 4 3 5 5 5 5 5 9 13 10 6 11 17 17 16 16 16 16 16 16 16 16 15 15 16 16 17 17 17 16 16 15 16 17 18 20
10 10 10 10 10 9 9 9 9 9 9 9 9 9 10 9 9 10 9 9 9 9 9 9 7 4 5 4 2 2 3 1 2 4 2 4 6 2 4 3 6 3 5 6 4 3 3 5 5 6 3 6 7 5 4 4 6 12 12 8 12 18 18 16 16 16 17 17 17 17 16 16 16 16 16 17 17 18 17 17 17 17 18 20 21
11 10 9 10 10 9 9 9 9 9 9 9 9 9 11 11 10 10 10 9 9 9 8 9 8 6 8 9 6 5 4 3 3 3 3 4 4 1 3 5 5 3 6 7 6 7 5 5 7 7 4 7 10 7 3 3 5 12 15 13 14 17 17 16 15 16 17 17 18 18 17 17 17 16 17 17 18 19 18 18 18 19 19 20 22
12 11 10 10 9 10 9 8 8 8 8 9 10 10 10 10 9 9 10 9 10 9 9 9 7 6 7 8 9 7 4 6 5 3 4 5 5 5 6 7 6 3 5 8 7 7 5 4 6 8 7 8 11 10 7 5 6 12 16 16 15 15 16 15 13 15 17 17 19 20 20 19 18 18 18 18 18 19 19 20 19 19 20 21 23
14 13 13 12 11 10 10 9 9 9 9 9 10 10 9 9 10 10 9 9 9 10 10 10 8 7 7 7 9 8 5 7 8 5 5 8 9 9 6 6 5 2 4 9 9 5 3 4 7 9 9 9 9 10 10 9 11 14 14 14 14 13 14 13 12 15 16 17 19 21 21 21 20 19 19 18 19 19 20 20 20 21 21 22 24
15 15 15 15 14 12 10 10 10 9 9 9 9 10 9 10 10 9 9 9 9 10 10 10 10 9 8 7 8 9 9 10 11 8 7 9 11 10 7 6 7 5 3 6 9 7 4 5 7 8 7 8 6 8 10 11 13 15 14 13 13 12 12 12 13 16 17 17 18 21 22 22 21 20 19 19 19 19 20 20 21 21 22 23 24
14 14 15 16 15 13 12 11 11 10 10 9 9 9 9 10 10 9 10 10 9 10 10 10 11 11 10 8 8 8 8 9 10 9 8 10 11 12 10 8 9 8 6 7 8 6 4 4 3 4 6 8 6 5 7 8 11 14 13 13 13 12 12 12 14 17 17 17 18 21 23 22 22 21 20 19 19 20 20 20 21 22 23 24 24
15 15 15 15 15 15 13 12 12 11 11 10 10 10 10 10 10 9 9 10 10 9 9 10 10 10 11 11 10 10 8 7 7 7 8 10 10 11 10 8 10 11 9 9 10 8 7 8 3 4 6 6 5 3 4 7 10 12 13 15 15 13 12 12 14 17 18 18 18 20 22 23 22 21 20 20 20 20 20 21 21 22 23 24 24
17 17 17 16 15 15 14 14 13 12 12 12 11 11 11 10 10 10 9 10 10 10 10 9 9 9 11 12 13 13 12 11 10 9 9 11 9 9 9 8 11 13 12 12 13 11 10 9 6 3 2 4 6 6 7 8 9 11 13 15 14 13 13 13 14 17 18 18 18 19 21 22 21 20 20 20 20 21 21 21 21 22 23 23 23
18 19 19 18 16 16 15 14 14 13 12 12 12 11 11 11 11 11 10 10 11 11 11 10 10 10 11 12 13 14 14 13 13 13 10 10 11 9 10 10 11 12 11 11 12 13 12 12 10 8 7 9 9 8 10 9 9 10 12 13 11 11 13 14 15 17 18 17 17 18 20 21 20 20 20 19 20 21 21 21 22 22 22 22 23
19 19 19 19 18 17 16 15 14 14 13 12 12 12 12 12 12 11 11 11 11 12 12 12 12 12 12 13 14 14 13 13 14 14 12 10 11 11 9 10 11 11 10 10 11 12 13 12 11 10 8 8 8 9 11 10 10 11 11 12 11 9 10 14 16 17 16 16 17 18 20 21 19 19 19 19 20 22 22 21 21 21 21 22 22
21 21 20 19 19 19 17 16 16 16 16 15 13 13 13 12 12 12 11 11 12 12 13 13 13 13 14 15 15 13 12 12 12 13 13 12 12 12 11 12 11 9 10 12 13 13 13 12 11 11 8 7 9 11 11 12 12 12 12 13 13 10 8 11 14 15 15 15 17 18 19 20 20 19 19 18 19 22 22 21 20 20 21 21 22
21 23 22 20 20 20 19 19 19 19 19 17 16 15 15 14 13 13 12 12 13 12 13 13 13 14 15 15 15 13 12 12 12 13 13 14 16 15 14 13 12 9 10 13 13 14 15 14 13 12 10 10 12 12 12 13 12 12 12 12 13 13 11 11 11 12 14 15 17 17 18 19 19 19 19 20 20 22 23 21 19 19 20 21 22
22 22 23 22 21 21 20 20 21 20 19 20 19 17 16 16 15 14 14 15 15 14 14 13 13 14 15 16 15 14 13 13 14 15 15 15 16 17 17 15 14 13 15 15 14 15 16 16 14 13 12 13 13 13 13 13 12 12 11 12 13 13 13 13 11 11 13 15 15 16 18 19 18 18 20 21 21 23 24 22 19 19 20 21 22
23 22 23 24 23 22 22 22 21 20 19 20 20 19 17 17 16 16 15 16 17 16 15 15 15 15 16 16 15 15 15 14 15 16 16 15 15 17 18 17 17 18 20 20 19 19 19 18 16 15 14 14 14 15 14 13 13 13 14 15 14 11 10 11 11 11 13 14 15 17 18 17 17 18 19 21 22 24 25 23 20 19 20 21 22
24 23 22 23 24 23 23 23 23 21 20 19 19 20 19 17 16 17 17 16 17 17 17 16 16 15 15 16 16 16 16 16 17 17 17 16 16 16 17 17 17 19 20 20 20 21 21 19 18 17 17 16 16 14 11 10 12 15 17 17 14 12 11 13 13 11 11 14 17 19 19 17 17 19 19 20 22 24 24 24 21 19 20 22 23
23 24 22 21 23 23 24 24 24 22 21 20 20 20 20 20 19 18 18 18 17 17 17 16 15 15 15 15 16 17 17 18 18 18 17 17 17 17 17 17 19 20 20 19 19 20 20 21 20 20 20 18 15 13 12 13 15 16 16 15 14 13 12 14 15 12 12 15 17 18 19 18 19 20 21 21 22 24 23 23 21 19 20 23 23
23 23 23 22 22 22 23 23 23 23 22 22 22 21 21 20 20 20 20 20 19 17 17 16 16 16 16 16 16 17 18 19 18 18 18 18 18 18 17 18 19 20 21 21 21 20 20 21 22 21 20 18 16 17 17 16 15 14 13 14 15 14 13 15 16 15 16 17 17 16 17 19 20 21 22 22 23 24 23 22 21 19 20 22 24
24 22 23 23 23 22 22 22 23 22 23 23 23 23 22 21 21 21 22 21 21 19 18 18 17 17 16 17 17 17 18 20 20 20 19 19 19 19 19 19 19 20 21 22 23 23 22 22 23 22 21 21 20 19 18 16 14 14 14 15 15 13 12 15 18 19 20 18 17 17 17 17 20 22 23 24 23 22 22 22 21 21 22 22 23
25 24 22 22 23 22 21 21 22 23 23 23 23 25 24 23 22 22 23 23 22 21 20 20 20 19 18 17 17 18 18 20 21 21 21 22 21 21 21 21 21 21 22 23 23 23 23 23 24 24 24 24 22 19 17 16 15 15 14 15 14 13 13 18 22 24 22 19 18 19 19 19 21 23 22 21 21 21 21 21 21 23 23 22 23
23 24 24 23 23 23 22 21 21 22 23 22 22 24 26 26 25 24 24 24 24 24 23 22 22 21 21 20 19 18 17 19 21 22 23 24 23 23 22 22 23 24 24 25 25 25 24 24 25 25 25 24 22 19 17 17 16 15 16 18 18 19 20 23 25 24 23 19 17 19 22 23 22 21 19 16 16 19 20 21 21 22 23 22 23
17 20 22 23 23 23 23 23 21 21 22 22 22 23 24 26 27 26 26 25 25 25 24 24 23 22 22 22 22 21 19 19 19 21 24 24 24 23 22 21 22 24 26 28 29 29 29 28 28 28 27 26 25 23 21 20 20 21 22 23 23 24 25 25 24 24 22 20 18 22 25 23 19 17 18 16 14 16 19 21 21 21 22 22 23
19 19 19 21 23 23 24 25 25 23 22 21 22 23 23 24 25 26 27 27 26 25 25 24 24 23 23 23 24 25 24 23 22 21 22 23 24 25 24 24 24 25 26 28 30 32 33 33 33 33 31 30 29 28 27 26 26 26 26 27 27 26 26 24 24 23 22 22 22 23 24 21 17 16 19 17 15 16 18 19 20 21 22 22 23
19 21 20 21 24 26 26 27 29 30 27 23 21 21 21 22 23 23 24 26 27 27 26 25 25 25 25 24 25 25 26 26 25 25 24 24 24 25 26 27 28 29 28 28 29 31 33 34 35 35 33 32 32 31 30 29 29 29 29 29 28 27 26 26 26 25 25 25 22 20 21 21 17 18 20 18 16 17 17 18 20 21 22 22 22
15 17 20 22 24 25 26 27 29 31 31 30 28 24 20 19 21 23 24 24 26 27 27 27 27 27 27 27 27 27 27 27 27 27 26 26 26 27 28 30 32 34 34 32 30 30 31 32 34 34 34 33 32 32 31 31 31 30 30 30 29 28 28 29 30 29 28 26 22 18 21 21 18 19 21 18 17 18 18 18 20 19 19 20 20
16 17 20 23 24 24 25 27 27 28 29 29 30 29 27 23 22 24 26 27 27 28 29 29 29 29 30 30 30 30 31 31 31 30 29 28 29 30 30 32 34 36 37 36 34 33 32 32 32 32 33 32 32 31 30 30 30 30 30 31 31 30 29 30 31 32 30 28 24 20 20 21 20 20 20 19 19 20 19 19 18 18 18 18 19
16 18 20 22 24 25 25 26 27 28 28 27 27 29 30 29 27 27 28 30 32 32 33 33 32 31 31 32 33 33 34 35 35 34 33 32 33 33 34 34 35 37 38 36 35 35 35 34 33 32 31 31 30 29 28 28 28 27 29 31 31 31 32 32 32 33 31 31 28 22 21 24 23 21 20 20 19 19 19 18 17 18 18 19 20
14 17 18 20 22 24 25 26 27 27 27 27 27 28 29 30 31 30 30 32 34 35 35 35 34 33 32 31 32 34 36 38 38 38 37 36 36 37 38 37 38 40 40 38 36 36 36 35 34 33 33 33 32 31 30 29 28 28 30 31 30 31 33 35 34 33 32 32 29 23 21 23 23 20 18 17 17 17 19 19 19 19 20 20 21
Wind_Direction
130 129 136 134 131 132 124 121 122 119 110 106 113 114 106 106 106 107 110 114 116 115 114 120 130 139 133 130 127 123 124 117 107 105 99 93 98 102 104 105 103 100 97 98 97 94 90 83 77 75 73 66 61 55 51 46 39 38 36 37 36 36 38 37 38 39 40 40 39 39 38 36 35 34 33 31 29 24 20 14 7 5 360 359 357
135 131 136 130 129 132 126 121 122 121 113 111 118 115 107 106 105 106 112 115 113 118 125 129 132 127 122 126 128 132 123 100 92 100 101 92 90 95 99 99 96 97 94 94 92 87 80 73 70 65 63 55 49 45 42 41 37 34 35 40 41 42 44 43 46 48 47 46 45 45 43 40 38 36 35 33 29 23 17 11 3 357 351 346 342
133 132 131 124 119 118 119 121 125 125 117 116 116 111 110 110 106 103 106 106 105 114 128 134 139 134 123 125 124 118 106 91 69 64 72 85 92 89 92 95 91 93 97 95 88 79 73 66 65 60 56 49 42 40 39 39 36 34 37 44 47 47 50 51 52 53 51 51 49 48 46 43 38 35 33 29 22 17 11 4 358 350 343 337 330
134 131 128 127 120 115 126 130 130 126 116 116 112 110 115 112 106 101 102 104 104 109 119 130 139 135 131 134 132 123 108 110 107 96 356 66 102 96 83 88 94 97 93 89 82 73 69 62 58 54 48 42 38 38 37 40 38 41 45 48 53 53 54 55 54 53 51 50 48 46 44 40 37 31 25 20 13 8 4 357 351 346 338 332 326
138 133 133 136 131 132 145 138 132 126 117 116 115 116 116 111 107 103 103 103 106 116 114 119 129 124 129 135 134 143 133 125 137 149 189 39 96 109 104 98 94 96 89 82 73 65 65 61 56 47 40 35 34 39 41 45 46 47 53 55 58 59 57 57 53 51 49 47 45 40 38 33 28 25 18 11 7 2 359 355 349 344 339 334 329
138 136 140 141 137 137 141 135 131 127 119 114 117 120 117 117 116 116 118 107 112 133 123 120 125 117 129 138 131 136 131 130 144 144 140 145 78 85 108 123 117 108 99 84 64 54 52 51 51 43 41 39 39 45 48 51 57 56 59 61 62 61 59 56 53 51 48 44 41 35 28 24 19 15 10 4 1 359 356 355 351 348 344 339 336
140 136 135 136 137 138 140 138 135 134 128 119 123 130 129 135 131 130 134 115 114 130 121 121 130 123 127 132 120 115 120 132 144 145 147 156 159 137 64 74 101 110 109 91 58 46 46 49 53 53 51 52 50 52 56 58 61 62 62 64 63 61 58 54 52 47 44 37 32 27 20 14 11 6 3 0 358 356 354 353 352 350 348 345 341
142 136 130 135 141 141 145 145 141 141 141 134 137 144 140 141 139 137 136 123 115 109 106 108 114 116 117 121 117 119 125 126 132 145 154 155 150 164 200 83 49 48 74 78 55 42 49 59 58 56 55 56 59 58 61 63 63 64 64 63 60 57 54 48 45 38 33 29 23 20 14 9 6 3 1 359 358 357 356 355 354 352 350 347 344
146 140 134 137 142 143 147 147 142 142 144 136 135 143 141 139 140 136 130 128 119 100 95 92 93 98 108 121 120 120 122 123 140 152 142 146 145 125 119 110 61 44 53 49 41 37 52 68 60 57 57 56 59 60 61 62 62 62 59 57 53 47 43 36 32 28 23 21 17 13 10 7 5 3 2 1 359 358 357 355 353 351 347 344 342
148 147 138 137 141 146 150 148 144 145 143 131 130 138 137 137 139 133 127 126 114 107 112 92 83 94 108 123 122 121 127 138 155 146 98 99 130 146 63 71 58 49 60 41 24 25 51 76 65 57 56 56 57 58 59 59 57 55 49 46 43 36 32 27 22 21 18 15 14 10 7 5 3 2 0 359 357 356 354 352 349 346 342 340 337
148 149 142 141 147 150 153 151 148 149 139 128 134 137 130 132 138 138 133 120 103 110 129 100 88 105 109 110 120 127 135 137 131 104 86 70 98 128 82 65 58 52 73 108 350 20 58 85 74 63 58 56 57 56 53 51 47 42 40 34 32 28 22 21 17 15 15 12 9 6 3 1 359 358 356 354 353 351 350 347 345 342 339 336 333
149 149 145 144 148 152 154 153 153 149 135 129 137 138 130 128 135 139 133 118 100 98 106 96 98 107 100 94 109 119 130 134 125 102 97 61 76 124 104 69 80 58 67 133 254 12 47 65 64 60 60 55 50 52 47 41 39 34 33 29 25 24 19 17 14 12 9 6 4 0 358 355 353 352 350 349 348 346 346 345 343 340 338 334 330
152 152 149 146 148 153 155 157 159 153 142 140 150 149 138 130 129 127 121 112 98 89 81 86 90 93 97 86 83 96 116 125 123 119 111 80 88 134 144 95 108 108 80 113 163 1 30 50 54 31 41 64 51 49 42 33 35 32 31 28 24 21 18 15 11 8 5 0 357 354 353 351 349 348 346 345 345 345 345 343 342 339 336 332 327
156 155 151 149 151 154 158 162 163 159 153 150 154 150 140 136 127 114 111 104 102 110 101 87 78 92 111 98 73 96 153 138 131 138 134 109 101 131 148 120 104 93 69 76 90 67 24 36 74 344 24 69 45 41 44 35 34 29 25 23 20 17 14 13 9 6 2 358 355 351 350 348 347 347 347 348 347 346 344 342 340 338 336 333 329
159 157 154 153 153 155 159 162 163 162 159 153 151 150 143 136 124 115 113 93 94 106 103 100 105 115 114 108 100 105 107 123 140 145 144 129 115 124 136 128 102 75 72 72 94 145 160 18 98 98 73 78 39 34 38 27 24 19 15 12 11 11 7 6 3 1 359 357 354 352 350 349 350 351 352 351 348 344 342 340 340 340 340 338 335
159 157 155 156 155 156 158 160 162 159 159 157 151 152 147 134 123 128 123 104 97 93 87 111 127 118 101 103 117 113 99 112 136 139 141 140 127 125 137 141 128 111 114 115 122 148 109 48 71 69 70 77 56 51 26 4 7 6 8 8 4 3 1 360 359 358 358 357 357 356 356 357 357 356 353 349 345 342 340 341 343 345 344 340 338
157 158 157 160 158 156 158 159 161 157 157 158 151 152 148 138 136 132 123 120 123 112 93 98 120 118 115 112 101 77 73 92 138 142 115 121 127 131 141 150 133 126 153 170 133 107 33 35 54 43 45 51 37 40 27 350 352 355 1 6 2 359 357 357 359 360 1 2 5 5 5 3 360 355 351 346 343 342 343 346 349 348 346 344 345
153 158 158 163 161 157 160 159 159 159 158 157 156 157 148 143 147 132 126 135 133 128 115 89 99 110 108 97 72 42 58 72 119 138 82 110 124 136 145 144 110 131 152 156 96 104 227 354 35 21 20 33 13 20 34 353 342 349 355 359 2 2 360 0 6 10 10 12 13 12 9 4 360 354 350 347 346 347 350 353 353 351 353 355 353
154 159 160 165 165 161 162 161 160 162 161 161 161 158 151 157 163 145 150 154 136 129 125 98 94 100 94 84 70 112 102 78 99 91 75 125 128 139 159 166 93 105 114 124 109 97 175 313 12 14 23 27 351 17 38 344 343 0 2 1 6 11 12 14 20 22 18 18 17 15 11 4 1 357 353 354 354 356 358 358 358 0 2 1 357
159 162 162 166 169 166 166 164 164 166 165 164 160 160 163 171 175 167 167 156 142 139 139 123 101 114 142 136 111 127 109 91 151 130 102 122 103 132 167 174 135 85 94 138 143 73 102 150 194 28 18 355 0 34 16 337 5 23 19 15 17 20 26 28 29 28 23 21 20 16 13 9 5 3 1 3 4 4 4 3 6 8 5 1 358
163 164 166 168 170 170 171 170 170 172 171 170 167 170 179 180 180 178 167 157 153 150 144 130 113 148 184 155 121 118 108 116 145 132 115 88 64 95 123 132 136 108 106 144 153 67 83 101 127 125 5 355 3 6 353 11 27 31 28 25 25 26 30 30 29 30 27 24 21 18 17 15 10 8 8 10 10 8 7 8 11 10 6 1 359
167 167 168 167 170 170 171 174 176 178 176 175 177 181 185 183 183 181 172 170 163 151 148 146 137 138 187 173 142 129 121 122 123 114 176 350 12 101 117 131 160 125 108 131 127 118 92 83 116 132 20 350 329 336 355 37 28 24 28 29 31 34 32 28 25 28 29 26 23 21 20 19 15 12 12 12 11 11 11 11 14 12 6 2 1
171 172 171 168 171 168 167 174 178 181 183 181 182 187 188 185 188 188 184 185 170 154 159 177 164 142 111 123 128 117 119 124 127 191 191 223 313 205 144 143 162 159 152 153 133 134 152 97 127 218 282 302 316 341 1 43 17 15 25 29 35 41 36 27 21 24 29 27 24 22 21 20 19 15 13 12 12 14 14 13 14 12 7 4 3
173 174 176 172 173 171 169 177 179 181 186 186 183 183 186 192 198 196 192 196 184 171 174 177 160 141 124 87 105 131 161 124 131 188 198 229 222 146 49 116 151 171 183 168 147 164 174 133 186 249 288 335 1 13 6 17 6 5 18 32 33 38 36 25 19 21 25 25 24 22 20 19 19 17 14 12 13 15 16 15 14 12 9 7 5
177 180 182 176 176 177 176 177 180 183 183 183 185 182 182 194 207 202 197 205 198 192 193 171 150 161 177 182 191 188 195 158 167 190 226 232 194 109 24 149 161 162 167 173 172 187 171 158 220 268 331 355 1 16 351 350 357 358 8 26 28 30 29 21 16 17 19 20 21 20 17 15 15 15 14 13 13 16 16 15 14 12 10 9 7
183 188 186 180 181 182 181 180 181 184 183 184 191 190 187 193 204 203 203 212 208 206 205 176 168 201 193 180 179 175 198 231 216 190 215 226 196 315 311 194 177 175 182 196 193 184 191 207 255 286 331 348 347 358 342 338 10 0 1 13 21 21 19 15 14 14 14 15 15 16 14 11 11 11 11 11 11 15 16 15 14 12 10 10 9
188 190 187 191 197 187 181 185 184 185 186 186 191 194 196 198 201 203 207 217 216 213 211 194 187 208 204 189 184 183 201 210 202 191 203 216 219 242 253 222 205 212 195 193 181 172 190 217 259 283 311 334 336 347 355 356 11 4 357 1 8 11 9 9 11 12 12 13 12 12 9 7 7 6 7 8 8 12 14 13 13 11 10 10 10
195 191 185 194 205 194 185 189 188 188 189 188 190 193 196 198 199 202 205 213 219 217 216 206 192 200 220 215 198 191 188 201 207 211 206 210 215 219 232 233 229 237 176 181 186 186 200 209 223 254 298 328 332 348 357 354 357 356 348 346 351 359 1 2 7 9 11 14 12 9 5 2 3 3 3 4 4 7 10 11 11 10 10 10 10
203 195 188 193 200 201 197 194 191 191 192 191 190 191 196 199 201 204 200 203 219 221 219 211 192 196 222 235 226 201 188 211 215 203 218 226 218 212 207 214 229 225 164 182 195 193 206 228 227 242 292 327 339 358 359 350 343 337 335 340 340 347 355 356 0 2 5 10 10 7 3 359 358 358 359 0 0 2 4 7 8 8 9 10 9
202 200 201 198 197 204 204 200 198 194 193 196 193 190 197 201 201 207 202 198 215 221 219 217 201 198 210 225 251 233 202 226 224 202 233 243 221 212 203 208 228 215 188 193 195 186 185 192 212 270 316 335 346 4 354 327 314 317 332 342 335 341 352 352 353 354 355 359 0 1 359 356 354 354 355 357 358 358 359 2 4 6 8 9 7
198 201 213 211 203 204 205 203 206 201 196 199 198 192 196 203 201 206 208 204 216 222 218 220 211 209 212 207 226 241 222 228 234 225 258 262 229 209 200 214 232 217 210 211 203 203 191 177 193 314 331 330 321 323 297 283 299 317 333 336 335 346 351 347 345 343 346 349 348 351 353 351 351 351 352 354 355 357 357 357 0 2 6 7 6
201 201 213 216 211 208 206 206 210 211 206 201 201 198 198 206 206 205 212 214 219 223 219 219 213 218 231 218 212 225 223 218 216 214 244 267 248 207 196 232 241 221 219 225 222 223 209 201 231 268 272 272 271 280 279 280 306 322 328 330 335 346 346 341 333 330 338 342 339 343 345 346 349 350 351 352 354 357 356 356 358 358 2 4 3
207 207 210 211 212 213 210 208 209 214 220 211 203 205 203 206 211 209 215 219 218 222 222 220 211 213 238 241 229 228 228 225 218 206 216 250 254 225 206 228 245 236 229 229 231 236 231 231 242 236 238 256 259 272 284 294 307 309 316 326 338 354 344 327 319 322 331 335 333 337 338 341 346 347 348 351 354 357 356 355 356 355 358 1 1
210 212 215 212 211 215 213 210 206 209 225 229 214 212 211 208 212 215 219 222 221 222 225 225 219 212 223 238 243 240 236 235 228 217 216 229 249 257 239 226 234 238 242 248 247 246 243 241 241 238 248 267 269 267 278 297 308 309 320 328 339 354 329 308 311 321 328 329 328 331 332 336 341 343 346 351 354 356 354 353 353 353 355 357 359
211 211 218 218 214 215 213 210 209 205 216 232 227 219 219 216 215 216 219 228 233 230 227 232 232 224 223 232 242 246 241 242 240 230 222 216 225 248 259 257 254 239 239 260 266 261 257 250 245 242 243 259 265 264 278 297 307 313 321 322 327 331 306 295 307 317 322 322 321 324 327 330 336 341 345 346 348 352 352 350 349 350 352 355 356
215 212 215 218 218 219 214 210 214 212 209 221 228 223 222 224 223 219 215 222 238 241 234 234 238 237 236 239 244 245 237 240 251 246 233 219 214 220 232 250 263 250 236 252 265 265 260 253 249 249 246 252 260 271 287 296 300 304 306 308 315 316 306 303 309 310 312 313 315 321 323 324 331 337 341 343 344 348 348 347 346 347 351 353 354
216 217 216 215 217 223 221 214 218 222 215 215 223 225 224 226 229 227 220 219 228 239 240 238 240 243 246 247 248 248 238 233 243 251 248 234 221 220 221 224 235 237 231 234 245 255 258 256 253 253 256 262 271 282 292 297 299 297 295 300 305 301 297 301 308 309 311 313 317 319 319 323 328 331 334 338 341 343 343 342 343 345 349 351 352
214 219 221 219 216 220 226 223 221 227 226 221 224 227 227 228 232 234 232 228 230 236 239 240 242 242 246 250 251 251 247 239 237 245 253 249 235 229 227 225 229 236 237 237 240 247 255 261 262 261 263 271 280 288 295 300 299 298 302 308 310 307 300 300 306 309 312 318 321 319 320 324 324 324 328 332 333 335 336 337 341 345 347 350 351
216 217 221 224 221 219 224 228 226 227 230 230 229 230 229 227 231 236 237 236 237 241 242 242 244 245 245 249 252 252 251 248 243 242 247 252 249 240 234 233 236 241 246 249 250 252 255 260 265 267 268 274 282 291 298 296 291 295 302 306 312 321 318 311 315 320 316 316 319 320 322 323 320 319 323 325 325 326 329 332 337 341 345 348 349
220 217 218 223 226 224 222 226 227 226 230 234 233 234 234 229 228 233 239 240 239 242 247 248 248 248 248 250 253 254 255 255 254 251 248 249 254 252 247 241 239 240 243 246 251 256 260 262 264 267 272 276 278 277 274 273 279 289 298 304 314 319 310 303 311 321 316 311 313 313 312 313 313 315 318 320 319 320 322 328 331 333 338 343 346
224 221 219 220 226 229 228 228 228 226 227 235 238 237 238 236 232 231 236 242 241 237 241 247 248 248 248 248 249 252 257 261 264 264 258 252 251 254 256 255 252 249 246 244 245 249 256 261 264 267 270 271 267 266 271 278 288 298 304 304 304 300 294 296 305 311 311 311 312 307 299 299 303 308 312 314 316 317 318 322 327 329 331 337 343
228 227 224 220 224 230 233 233 234 230 227 231 240 243 243 242 241 236 234 240 245 241 235 238 244 247 249 250 251 252 256 262 269 273 272 266 259 254 253 255 257 258 257 255 252 249 249 254 258 260 261 261 263 269 279 288 294 297 297 295 294 292 290 294 298 302 306 310 310 307 302 300 302 304 307 309 313 315 316 319 325 327 327 332 338
231 231 230 225 222 227 233 234 235 235 232 230 236 245 249 247 246 243 239 238 242 245 242 237 238 242 245 249 253 255 257 261 266 272 275 276 273 267 259 255 254 255 257 259 259 256 253 252 255 257 258 262 268 272 276 279 279 281 281 279 281 279 277 283 290 297 305 309 305 304 311 316 310 307 309 310 308 308 313 318 322 324 325 327 331
238 233 234 232 227 226 229 233 234 237 239 237 236 242 250 252 251 249 246 241 239 242 246 244 243 244 245 246 249 252 256 260 264 267 268 272 277 278 274 266 260 256 254 255 258 260 259 257 257 259 261 264 268 268 268 269 269 268 265 264 266 269 274 282 288 294 303 307 298 296 309 319 315 307 311 318 309 302 307 313 316 319 320 320 325
254 234 234 236 235 233 232 232 234 238 243 247 247 246 249 255 256 254 251 247 241 240 244 247 248 248 249 250 251 250 251 254 261 269 272 275 279 282 283 279 271 264 258 256 257 259 260 261 260 261 264 266 266 265 263 261 261 263 266 270 274 278 283 287 290 295 301 300 292 289 301 315 315 305 310 321 315 301 302 308 310 313 314 315 319
262 242 236 233 233 236 235 233 234 236 240 249 256 256 256 258 259 259 258 254 247 243 243 245 248 249 250 253 256 257 256 254 256 263 272 276 278 279 279 279 277 274 268 263 260 260 261 262 263 264 266 267 267 269 269 267 267 270 274 279 282 285 289 290 290 293 294 294 294 291 296 310 316 305 308 317 312 301 300 303 305 307 308 310 313
247 242 240 237 234 232 231 231 231 230 230 236 248 257 261 261 260 261 262 260 255 249 245 245 248 250 251 252 255 258 261 262 261 260 262 266 270 273 274 275 276 276 275 272 269 268 267 267 269 271 272 272 272 273 274 274 274 276 279 283 284 286 287 286 286 289 291 294 298 291 291 307 315 305 305 308 299 293 296 296 297 301 303 305 308
234 239 240 243 243 239 236 236 236 235 232 230 233 239 247 257 259 258 257 258 259 256 253 249 247 248 250 252 254 255 256 259 261 262 261 261 263 266 269 272 275 277 278 279 278 276 275 273 274 275 277 278 277 277 277 276 276 278 280 281 281 282 283 284 286 290 292 296 299 290 284 295 302 297 299 300 290 288 294 294 296 299 300 301 305
241 243 241 241 243 244 243 243 242 244 242 239 238 239 239 243 251 255 255 255 257 259 260 259 255 251 249 249 251 254 255 255 256 258 260 260 260 261 263 267 271 274 278 281 282 282 282 280 279 279 279 279 279 278 278 276 276 277 275 272 274 275 276 278 282 286 289 292 294 289 279 282 290 293 294 293 288 288 293 296 299 300 300 300 302
258 255 250 247 245 243 243 244 243 245 247 245 244 243 241 239 242 248 253 255 256 258 260 263 263 261 257 254 252 253 255 256 257 256 256 258 259 261 262 263 265 268 271 275 278 281 284 284 283 283 282 280 279 278 276 274 273 272 269 269 272 271 267 268 273 278 282 284 287 283 272 275 283 287 286 286 287 287 290 293 296 297 297 298 299
272 270 266 260 254 247 244 244 244 245 247 247 246 245 242 240 240 242 246 249 253 256 258 260 263 264 264 262 259 256 256 257 258 258 258 258 259 261 263 263 264 266 269 269 271 274 277 279 280 280 280 280 279 278 276 275 273 271 269 270 272 270 266 268 271 272 272 278 285 282 270 271 278 280 279 279 279 280 282 284 286 289 292 294 297
Height
1583 1584 1585 1586 1586 1586 1587 1588 1588 1589 1590 1590 1591 1592 1592 1592 1592 1592 1593 1594 1594 1596 1598 1599 1599 1599 1599 1599 1599 1598 1598 1599 1599 1599 1600 1599 1599 1599 1600 1600 1600 1601 1601 1601 1601 1601 1601 1601 1601 1601 1601 1601 1601 1601 1600 1600 1600 1600 1599 1598 1598 1597 1597 1597 1596 1596 1595 1595 1594 1594 1593 1593 1593 1592 1592 1591 1591 1590 1590 1589 1588 1588 1587 1586 1586
1584 1583 1584 1586 1587 1587 1587 1589 1589 1589 1590 1591 1591 1592 1592 1592 1592 1593 1594 1595 1595 1595 1598 1600 1600 1600 1599 1600 1600 1600 1599 1599 1600 1600 1600 1600 1600 1600 1600 1600 1601 1601 1601 1601 1601 1601 1602 1602 1602 1601 1601 1601 1601 1601 1601 1601 1600 1600 1599 1599 1598 1598 1597 1597 1596 1596 1595 1595 1594 1594 1594 1593 1593 1593 1592 1592 1591 1591 1590 1589 1589 1588 1587 1587 1586
1585 1584 1584 1585 1587 1586 1586 1588 1589 1590 1591 1591 1592 1592 1593 1593 1593 1594 1594 1596 1596 1596 1599 1600 1601 1601 1601 1601 1601 1601 1600 1600 1600 1600 1600 1600 1601 1601 1601 1601 1601 1602 1602 1602 1602 1602 1602 1602 1602 1602 1602 1602 1602 1601 1601 1601 1600 1600 1599 1599 1598 1598 1598 1597 1597 1596 1596 1595 1595 1595 1594 1594 1594 1593 1593 1592 1591 1591 1590 1590 1589 1588 1588 1587 1586
1587 1587 1587 1587 1588 1588 1587 1587 1589 1590 1591 1591 1592 1593 1594 1594 1595 1595 1595 1596 1597 1598 1599 1600 1601 1602 1602 1602 1602 1602 1602 1601 1602 1601 1601 1601 1601 1602 1602 1602 1602 1602 1602 1602 1603 1603 1603 1602 1602 1602 1602 1602 1602 1602 1601 1601 1600 1600 1599 1599 1599 1598 1598 1597 1597 1596 1596 1596 1595 1595 1595 1594 1594 1593 1593 1592 1592 1591 1590 1590 1589 1588 1588 1587 1586
1587 1589 1590 1590 1591 1591 1589 1588 1589 1590 1591 1591 1592 1593 1595 1596 1597 1597 1597 1598 1599 1600 1601 1601 1602 1602 1603 1603 1602 1603 1603 1603 1604 1603 1602 1602 1602 1602 1602 1603 1603 1603 1603 1603 1603 1603 1603 1603 1603 1602 1602 1602 1602 1602 1601 1601 1601 1600 1600 1599 1599 1599 1598 1598 1597 1597 1597 1596 1596 1595 1595 1595 1594 1593 1593 1592 1592 1591 1590 1590 1589 1588 1588 1587 1586
1587 1589 1590 1592 1592 1593 1592 1590 1590 1591 1591 1592 1593 1595 1596 1597 1598 1599 1599 1600 1601 1601 1602 1602 1603 1603 1602 1603 1602 1602 1603 1604 1604 1604 1604 1603 1602 1602 1603 1603 1603 1603 1603 1603 1603 1603 1603 1603 1603 1603 1603 1602 1602 1602 1602 1601 1601 1601 1600 1600 1599 1599 1599 1598 1598 1597 1597 1596 1596 1596 1595 1595 1594 1594 1593 1592 1592 1591 1590 1590 1589 1588 1587 1587 1586
1587 1588 1590 1591 1592 1593 1593 1592 1592 1593 1593 1593 1595 1596 1597 1598 1599 1600 1600 1600 1602 1602 1602 1602 1603 1603 1602 1602 1603 1603 1603 1604 1604 1604 1604 1604 1603 1603 1603 1603 1603 1604 1604 1604 1604 1603 1603 1603 1603 1603 1603 1603 1602 1602 1602 1602 1601 1601 1601 1600 1600 1600 1599 1599 1598 1598 1597 1597 1596 1596 1596 1595 1594 1594 1593 1592 1592 1591 1590 1590 1589 1588 1587 1586 1586
1586 1588 1589 1591 1592 1592 1593 1593 1594 1595 1595 1595 1596 1597 1598 1598 1599 1600 1601 1601 1602 1603 1602 1603 1603 1603 1603 1603 1603 1603 1603 1604 1604 1604 1604 1604 1604 1604 1604 1604 1603 1603 1604 1604 1604 1604 1604 1604 1604 1603 1603 1603 1603 1603 1602 1602 1602 1602 1601 1601 1600 1600 1600 1599 1599 1598 1598 1597 1597 1596 1596 1595 1595 1594 1593 1593 1592 1591 1590 1589 1589 1588 1587 1586 1585
1586 1587 1588 1590 1591 1591 1592 1593 1594 1595 1595 1596 1596 1597 1598 1598 1599 1600 1600 1601 1602 1602 1603 1603 1603 1604 1604 1604 1604 1604 1603 1604 1605 1604 1604 1604 1604 1604 1604 1604 1604 1604 1604 1604 1604 1605 1605 1604 1604 1604 1604 1604 1603 1603 1603 1603 1603 1602 1602 1601 1601 1600 1600 1600 1599 1599 1598 1598 1597 1597 1596 1596 1595 1594 1593 1593 1592 1591 1590 1589 1588 1587 1586 1585 1584
1586 1587 1587 1589 1590 1591 1592 1592 1593 1594 1595 1596 1596 1597 1597 1598 1599 1599 1600 1601 1601 1602 1602 1602 1603 1604 1604 1604 1604 1604 1604 1604 1604 1604 1604 1604 1604 1604 1604 1604 1604 1604 1604 1604 1605 1606 1606 1605 1605 1605 1604 1604 1604 1604 1604 1604 1603 1603 1602 1602 1601 1601 1601 1600 1600 1599 1599 1598 1598 1597 1597 1596 1595 1594 1593 1593 1592 1591 1590 1589 1588 1587 1586 1584 1583
1586 1587 1587 1588 1589 1590 1591 1592 1593 1594 1594 1595 1596 1596 1597 1597 1598 1599 1599 1600 1600 1601 1602 1602 1603 1604 1604 1603 1603 1604 1604 1604 1604 1604 1604 1604 1604 1604 1605 1605 1605 1605 1605 1606 1606 1607 1606 1606 1605 1605 1605 1605 1605 1605 1605 1604 1604 1603 1603 1602 1602 1602 1601 1601 1600 1600 1599 1599 1598 1597 1597 1596 1595 1594 1593 1593 1592 1591 1590 1589 1587 1586 1585 1583 1582
1585 1586 1587 1588 1589 1590 1590 1591 1592 1593 1594 1595 1596 1596 1596 1597 1598 1598 1599 1600 1600 1601 1602 1602 1603 1603 1603 1603 1603 1603 1603 1603 1603 1604 1604 1605 1605 1605 1606 1606 1606 1607 1607 1607 1607 1607 1607 1606 1606 1606 1606 1606 1605 1605 1605 1605 1605 1604 1603 1603 1603 1602 1602 1601 1601 1600 1600 1599 1598 1598 1597 1596 1595 1594 1593 1592 1591 1590 1589 1588 1587 1585 1584 1583 1581
1585 1586 1587 1587 1588 1589 1590 1591 1592 1593 1593 1594 1595 1596 1596 1597 1598 1598 1599 1600 1600 1601 1602 1602 1603 1603 1603 1603 1603 1603 1603 1603 1602 1604 1606 1606 1606 1607 1607 1607 1607 1608 1608 1608 1608 1607 1607 1607 1606 1606 1606 1606 1606 1606 1606 1606 1605 1604 1604 1604 1603 1603 1602 1602 1601 1601 1600 1599 1599 1598 1597 1596 1595 1594 1593 1592 1591 1590 1589 1587 1586 1585 1583 1581 1580
1585 1586 1586 1587 1588 1589 1590 1590 1591 1592 1593 1594 1595 1595 1596 1597 1598 1599 1599 1600 1600 1601 1602 1602 1603 1603 1603 1603 1603 1603 1603 1602 1602 1605 1607 1607 1607 1607 1607 1607 1608 1608 1608 1608 1608 1608 1608 1608 1608 1608 1607 1607 1606 1606 1606 1606 1606 1605 1605 1604 1604 1603 1602 1602 1602 1601 1600 1599 1598 1598 1597 1596 1595 1594 1593 1591 1590 1589 1588 1586 1585 1584 1582 1580 1578
1585 1585 1586 1587 1588 1588 1589 1590 1591 1592 1593 1594 1594 1595 1597 1597 1598 1599 1600 1600 1601 1601 1602 1602 1603 1603 1602 1603 1604 1604 1603 1602 1603 1606 1607 1607 1607 1607 1608 1609 1609 1608 1608 1608 1609 1610 1610 1609 1609 1609 1608 1607 1607 1607 1606 1606 1606 1606 1605 1605 1604 1603 1603 1602 1602 1601 1600 1599 1598 1597 1596 1595 1594 1593 1592 1591 1590 1588 1587 1585 1584 1582 1581 1579 1577
1584 1585 1586 1587 1587 1588 1589 1590 1591 1592 1593 1594 1594 1595 1597 1598 1599 1600 1600 1601 1601 1602 1602 1602 1603 1603 1603 1603 1603 1604 1604 1603 1604 1606 1607 1607 1608 1608 1609 1610 1609 1609 1609 1609 1610 1610 1610 1610 1609 1609 1609 1608 1608 1607 1606 1606 1606 1606 1606 1605 1604 1604 1603 1603 1602 1601 1600 1599 1598 1597 1596 1595 1594 1593 1591 1590 1589 1587 1586 1584 1583 1581 1580 1578 1577
1584 1585 1586 1586 1587 1588 1589 1590 1591 1592 1593 1594 1595 1596 1597 1598 1599 1600 1600 1601 1602 1602 1603 1603 1603 1603 1603 1603 1603 1604 1604 1604 1605 1605 1606 1607 1608 1609 1609 1609 1609 1609 1610 1610 1610 1610 1610 1610 1610 1610 1609 1608 1608 1608 1608 1608 1607 1607 1606 1605 1604 1604 1603 1603 1602 1601 1600 1599 1598 1597 1596 1595 1594 1592 1591 1590 1588 1587 1585 1584 1582 1581 1579 1578 1576
1584 1585 1586 1586 1587 1588 1589 1590 1591 1592 1593 1594 1595 1595 1597 1598 1599 1600 1600 1601 1602 1603 1603 1603 1603 1603 1604 1604 1604 1605 1605 1604 1605 1606 1606 1606 1608 1609 1609 1609 1609 1609 1609 1610 1610 1610 1610 1610 1610 1610 1609 1609 1609 1609 1609 1609 1608 1607 1606 1605 1605 1604 1603 1602 1602 1601 1600 1599 1598 1597 1596 1595 1593 1592 1591 1589 1588 1586 1585 1583 1582 1581 1579 1577 1576
1584 1585 1586 1586 1587 1588 1589 1590 1591 1592 1593 1594 1595 1596 1597 1598 1599 1600 1600 1601 1602 1602 1603 1604 1604 1604 1604 1605 1605 1605 1605 1606 1606 1606 1607 1607 1608 1609 1609 1609 1608 1608 1609 1609 1610 1611 1611 1610 1610 1610 1610 1611 1611 1610 1610 1609 1609 1608 1607 1606 1605 1604 1603 1602 1602 1601 1600 1599 1598 1596 1595 1594 1593 1591 1590 1588 1587 1586 1584 1583 1582 1580 1579 1577 1575
1584 1584 1585 1586 1587 1588 1589 1590 1591 1592 1593 1594 1595 1596 1597 1598 1599 1599 1600 1601 1601 1602 1603 1604 1604 1605 1605 1605 1606 1606 1606 1606 1607 1607 1607 1608 1608 1608 1609 1609 1608 1608 1609 1610 1611 1612 1612 1612 1611 1611 1611 1612 1611 1611 1610 1610 1609 1609 1607 1606 1605 1605 1604 1603 1602 1601 1600 1599 1597 1596 1595 1594 1592 1591 1590 1588 1587 1586 1585 1583 1582 1580 1579 1577 1575
1584 1584 1585 1586 1587 1588 1589 1590 1591 1592 1593 1594 1595 1596 1596 1597 1598 1599 1599 1600 1601 1602 1603 1604 1604 1605 1605 1605 1605 1606 1606 1607 1607 1608 1608 1608 1608 1608 1609 1609 1609 1610 1611 1612 1612 1612 1612 1613 1613 1613 1612 1611 1611 1610 1610 1610 1609 1609 1608 1607 1606 1605 1604 1603 1602 1601 1600 1598 1597 1596 1594 1593 1592 1591 1590 1588 1587 1586 1585 1583 1582 1580 1578 1577 1575
1583 1584 1585 1586 1587 1588 1589 1590 1590 1592 1593 1594 1594 1595 1596 1597 1598 1598 1599 1600 1601 1602 1603 1603 1604 1604 1605 1605 1606 1606 1607 1607 1608 1608 1608 1608 1608 1608 1609 1610 1610 1611 1612 1612 1612 1612 1613 1613 1613 1613 1613 1612 1612 1610 1610 1610 1609 1609 1608 1607 1607 1605 1603 1603 1602 1601 1599 1598 1597 1596 1594 1593 1592 1591 1589 1588 1587 1586 1584 1583 1582 1580 1578 1576 1575
1583 1584 1585 1585 1586 1587 1588 1589 1590 1591 1592 1593 1594 1595 1596 1597 1597 1598 1599 1600 1601 1602 1603 1603 1604 1604 1605 1606 1606 1606 1607 1608 1608 1609 1609 1608 1608 1608 1609 1610 1610 1611 1611 1612 1613 1613 1613 1613 1613 1613 1613 1612 1612 1611 1610 1609 1609 1609 1608 1608 1607 1605 1604 1603 1602 1601 1599 1598 1597 1596 1595 1593 1592 1591 1590 1588 1587 1585 1584 1583 1581 1580 1578 1576 1574
1582 1583 1584 1585 1586 1587 1588 1589 1590 1591 1592 1593 1593 1595 1596 1596 1597 1598 1599 1600 1600 1601 1602 1603 1604 1605 1605 1606 1607 1607 1608 1608 1609 1609 1609 1609 1608 1608 1608 1610 1610 1611 1611 1612 1613 1613 1613 1614 1613 1612 1612 1612 1611 1611 1610 1609 1609 1608 1608 1608 1607 1605 1603 1603 1602 1601 1599 1598 1597 1596 1595 1593 1592 1591 1590 1588 1587 1585 1584 1582 1581 1579 1577 1576 1574
1581 1582 1584 1584 1585 1586 1587 1588 1589 1590 1591 1592 1593 1594 1595 1596 1597 1598 1598 1599 1600 1601 1602 1602 1604 1605 1605 1606 1607 1608 1608 1608 1609 1609 1609 1609 1609 1609 1608 1609 1610 1610 1611 1612 1612 1612 1613 1613 1613 1612 1612 1611 1611 1611 1609 1608 1609 1608 1608 1607 1606 1604 1603 1603 1602 1601 1599 1598 1597 1596 1595 1594 1592 1591 1589 1588 1587 1585 1584 1582 1580 1579 1577 1575 1573
1581 1582 1583 1584 1585 1586 1586 1588 1589 1590 1590 1592 1593 1594 1595 1596 1596 1597 1598 1599 1600 1601 1601 1602 1603 1604 1605 1605 1606 1607 1608 1608 1609 1609 1609 1609 1609 1609 1609 1609 1609 1610 1610 1611 1611 1612 1612 1613 1612 1611 1612 1611 1611 1611 1610 1609 1609 1608 1607 1606 1605 1604 1603 1603 1602 1601 1600 1598 1597 1596 1595 1593 1592 1591 1589 1588 1587 1585 1583 1582 1580 1578 1577 1575 1573
1580 1581 1582 1583 1584 1585 1586 1587 1588 1589 1590 1591 1592 1593 1594 1595 1596 1597 1597 1598 1599 1600 1601 1602 1603 1604 1605 1605 1606 1606 1607 1608 1609 1609 1609 1609 1609 1609 1608 1608 1609 1609 1610 1610 1611 1611 1612 1612 1611 1610 1611 1611 1610 1610 1609 1608 1608 1608 1606 1605 1604 1603 1603 1603 1602 1601 1600 1598 1597 1596 1594 1593 1592 1590 1589 1587 1586 1585 1583 1582 1580 1578 1576 1574 1572
1580 1581 1582 1582 1583 1584 1585 1587 1588 1589 1590 1591 1592 1593 1593 1595 1595 1596 1597 1598 1599 1599 1600 1601 1602 1604 1604 1605 1605 1606 1606 1607 1607 1608 1608 1608 1608 1608 1608 1608 1609 1609 1609 1610 1610 1611 1611 1612 1611 1610 1610 1610 1610 1609 1608 1607 1607 1607 1606 1605 1604 1603 1603 1603 1602 1601 1600 1599 1597 1596 1594 1593 1591 1590 1589 1587 1586 1584 1583 1581 1580 1578 1576 1574 1572
1579 1580 1581 1582 1583 1584 1585 1586 1587 1588 1589 1590 1591 1592 1593 1594 1595 1596 1597 1598 1598 1599 1600 1601 1602 1603 1604 1604 1605 1605 1606 1606 1606 1606 1606 1606 1607 1607 1608 1608 1608 1608 1608 1608 1609 1610 1611 1611 1610 1609 1610 1610 1609 1608 1607 1607 1606 1606 1606 1605 1603 1603 1603 1602 1601 1600 1600 1598 1597 1596 1594 1593 1591 1590 1588 1587 1585 1584 1583 1581 1580 1578 1576 1574 1572
1579 1580 1580 1581 1582 1583 1584 1585 1586 1588 1589 1589 1591 1591 1592 1593 1594 1595 1596 1597 1598 1598 1599 1600 1601 1602 1603 1604 1604 1605 1605 1605 1606 1606 1606 1606 1607 1607 1607 1607 1607 1608 1608 1607 1608 1608 1609 1610 1610 1609 1609 1609 1608 1608 1608 1607 1607 1606 1606 1605 1603 1602 1602 1601 1601 1600 1599 1598 1597 1595 1594 1592 1591 1590 1588 1587 1585 1584 1582 1581 1579 1578 1576 1573 1572
1578 1579 1580 1580 1581 1582 1583 1585 1586 1587 1588 1589 1590 1591 1592 1593 1594 1595 1596 1597 1597 1598 1599 1599 1600 1602 1602 1604 1604 1604 1605 1605 1606 1606 1606 1606 1606 1607 1607 1607 1607 1607 1607 1607 1607 1607 1607 1608 1609 1609 1609 1608 1608 1608 1608 1607 1607 1606 1605 1604 1603 1602 1601 1601 1600 1599 1598 1597 1596 1595 1593 1592 1591 1589 1588 1586 1585 1584 1582 1581 1579 1577 1575 1574 1572
1577 1578 1579 1579 1580 1581 1582 1584 1585 1586 1587 1588 1589 1590 1591 1592 1593 1594 1595 1596 1597 1597 1598 1599 1600 1601 1602 1603 1604 1604 1604 1605 1605 1606 1606 1606 1606 1606 1607 1607 1607 1607 1607 1607 1607 1607 1607 1607 1607 1608 1609 1608 1608 1608 1607 1607 1606 1605 1604 1603 1602 1601 1600 1600 1599 1599 1598 1597 1595 1594 1593 1592 1590 1589 1587 1586 1585 1583 1582 1580 1579 1577 1575 1574 1572
1576 1577 1578 1578 1579 1580 1582 1583 1584 1585 1586 1587 1588 1589 1590 1592 1593 1594 1595 1595 1596 1597 1598 1598 1599 1601 1602 1602 1602 1603 1603 1604 1604 1605 1606 1606 1606 1606 1606 1607 1607 1606 1607 1607 1607 1607 1607 1607 1607 1607 1607 1607 1607 1607 1606 1606 1605 1604 1603 1603 1602 1601 1599 1599 1599 1598 1597 1596 1595 1593 1592 1591 1590 1589 1587 1586 1584 1583 1581 1580 1578 1577 1575 1574 1572
1575 1576 1576 1577 1578 1580 1581 1582 1583 1585 1586 1586 1588 1589 1590 1591 1592 1593 1594 1594 1595 1596 1597 1598 1599 1600 1601 1601 1602 1602 1602 1603 1603 1604 1605 1605 1606 1606 1606 1606 1606 1606 1606 1606 1607 1606 1606 1606 1606 1606 1606 1606 1606 1606 1605 1604 1604 1603 1602 1602 1601 1600 1599 1598 1597 1597 1596 1595 1594 1593 1592 1591 1589 1588 1587 1586 1584 1582 1581 1579 1578 1577 1575 1573 1572
1574 1575 1575 1576 1577 1578 1580 1581 1583 1584 1585 1586 1587 1588 1589 1590 1591 1592 1593 1594 1595 1596 1597 1598 1598 1599 1600 1600 1601 1601 1602 1602 1602 1603 1604 1605 1605 1606 1606 1606 1606 1606 1606 1606 1606 1606 1606 1605 1605 1605 1605 1605 1605 1604 1604 1603 1602 1602 1601 1600 1600 1600 1599 1598 1597 1595 1595 1594 1593 1592 1591 1590 1589 1587 1586 1585 1584 1582 1581 1579 1578 1577 1575 1573 1572
1573 1574 1575 1575 1576 1577 1578 1580 1581 1583 1584 1585 1586 1587 1588 1589 1590 1591 1593 1594 1594 1595 1596 1597 1598 1598 1599 1600 1600 1601 1601 1602 1602 1602 1603 1604 1604 1605 1605 1605 1605 1606 1606 1606 1605 1605 1605 1604 1604 1604 1604 1604 1603 1603 1603 1602 1601 1601 1600 1599 1599 1598 1598 1597 1596 1595 1594 1593 1592 1591 1590 1589 1588 1587 1585 1584 1583 1582 1581 1579 1578 1576 1575 1573 1571
1573 1573 1574 1574 1575 1576 1577 1579 1580 1581 1583 1584 1585 1586 1587 1588 1589 1590 1592 1593 1594 1594 1595 1596 1597 1598 1598 1599 1600 1600 1601 1601 1602 1602 1602 1603 1603 1604 1604 1605 1605 1605 1605 1605 1605 1604 1604 1603 1603 1603 1603 1603 1602 1602 1601 1600 1600 1600 1599 1599 1598 1597 1596 1596 1595 1594 1593 1592 1591 1590 1589 1588 1587 1586 1585 1583 1582 1581 1580 1579 1577 1576 1574 1572 1571
1572 1572 1573 1573 1575 1575 1576 1577 1578 1580 1581 1583 1584 1585 1586 1587 1588 1590 1590 1592 1593 1593 1594 1595 1596 1597 1598 1598 1599 1600 1600 1601 1601 1602 1602 1602 1603 1603 1603 1604 1604 1604 1604 1604 1604 1603 1603 1602 1602 1602 1602 1601 1601 1600 1600 1599 1599 1598 1598 1597 1597 1596 1595 1594 1594 1593 1592 1590 1590 1589 1588 1587 1586 1585 1584 1582 1581 1580 1579 1578 1577 1575 1573 1572 1570
1571 1572 1573 1573 1573 1575 1576 1576 1577 1579 1580 1581 1583 1584 1585 1587 1588 1589 1590 1591 1592 1592 1593 1594 1595 1596 1597 1598 1598 1599 1599 1600 1600 1601 1602 1602 1602 1603 1603 1603 1604 1604 1603 1603 1603 1603 1602 1601 1601 1601 1600 1600 1600 1599 1599 1598 1598 1597 1596 1596 1595 1594 1593 1593 1593 1592 1591 1589 1588 1587 1586 1585 1584 1583 1582 1581 1580 1579 1578 1576 1575 1574 1573 1571 1570
1569 1571 1572 1573 1573 1574 1575 1576 1577 1578 1579 1580 1581 1583 1584 1586 1587 1588 1588 1590 1590 1591 1592 1593 1594 1595 1596 1597 1598 1598 1599 1599 1600 1600 1601 1601 1602 1602 1602 1603 1603 1603 1603 1603 1602 1602 1601 1600 1600 1600 1599 1599 1599 1598 1598 1598 1597 1596 1595 1595 1593 1592 1592 1592 1591 1591 1590 1589 1587 1586 1585 1584 1583 1582 1581 1580 1579 1577 1576 1575 1574 1573 1572 1571 1569
1569 1570 1571 1572 1572 1572 1574 1575 1576 1577 1578 1579 1580 1581 1582 1584 1585 1586 1587 1588 1589 1590 1591 1592 1593 1594 1595 1596 1597 1597 1598 1598 1599 1599 1600 1601 1601 1601 1602 1602 1602 1602 1602 1602 1602 1601 1601 1600 1599 1599 1598 1598 1598 1597 1597 1597 1596 1595 1594 1593 1592 1591 1591 1590 1589 1589 1589 1588 1587 1585 1584 1582 1581 1580 1579 1578 1577 1576 1574 1573 1573 1572 1571 1570 1568
1569 1569 1570 1572 1572 1572 1572 1573 1575 1576 1577 1578 1578 1579 1581 1582 1583 1585 1586 1586 1587 1588 1590 1591 1592 1593 1594 1595 1595 1596 1597 1597 1597 1597 1598 1599 1600 1600 1601 1601 1601 1601 1601 1601 1600 1600 1600 1599 1599 1598 1598 1597 1597 1596 1596 1596 1595 1594 1593 1592 1591 1590 1590 1588 1587 1587 1587 1586 1585 1584 1583 1582 1581 1579 1577 1576 1575 1574 1573 1572 1572 1571 1570 1569 1568
1570 1570 1569 1570 1571 1572 1572 1572 1573 1574 1575 1577 1577 1578 1579 1580 1582 1583 1584 1585 1586 1587 1588 1589 1590 1591 1592 1593 1594 1595 1595 1595 1596 1596 1596 1597 1598 1598 1599 1599 1600 1600 1599 1599 1599 1599 1599 1598 1598 1597 1596 1595 1595 1596 1595 1595 1594 1594 1593 1591 1590 1589 1588 1587 1586 1585 1585 1585 1583 1581 1580 1580 1579 1577 1575 1574 1573 1572 1571 1571 1570 1570 1569 1568 1567
1569 1569 1570 1570 1570 1571 1572 1572 1572 1572 1572 1574 1576 1577 1577 1578 1580 1581 1582 1583 1584 1585 1586 1586 1588 1589 1589 1591 1592 1593 1593 1594 1594 1594 1594 1594 1595 1596 1596 1597 1597 1598 1598 1598 1597 1597 1597 1597 1596 1596 1595 1594 1594 1594 1594 1594 1593 1592 1591 1590 1589 1588 1587 1586 1584 1583 1583 1582 1581 1580 1578 1577 1577 1575 1574 1573 1571 1570 1569 1569 1569 1568 1567 1566 1565
1562 1563 1567 1569 1570 1570 1571 1571 1572 1571 1571 1572 1573 1574 1575 1576 1577 1579 1580 1581 1582 1583 1584 1584 1585 1586 1587 1588 1589 1589 1591 1591 1592 1591 1591 1591 1592 1593 1594 1594 1594 1595 1595 1595 1595 1595 1595 1595 1594 1593 1593 1593 1592 1592 1592 1592 1591 1590 1589 1588 1588 1587 1585 1584 1582 1581 1581 1580 1579 1578 1576 1575 1574 1573 1571 1571 1570 1569 1568 1567 1567 1566 1566 1565 1564
1563 1563 1564 1565 1566 1568 1568 1568 1569 1569 1570 1570 1570 1571 1572 1573 1574 1576 1577 1579 1579 1581 1582 1582 1583 1584 1584 1585 1585 1586 1587 1588 1589 1589 1589 1589 1589 1590 1591 1591 1591 1592 1592 1592 1593 1593 1593 1592 1591 1590 1591 1591 1590 1590 1590 1590 1589 1588 1587 1586 1585 1584 1583 1581 1580 1579 1579 1578 1578 1576 1574 1572 1572 1571 1569 1569 1569 1567 1566 1565 1565 1564 1564 1563 1562
1561 1562 1563 1562 1563 1563 1564 1564 1564 1564 1565 1566 1566 1566 1568 1569 1571 1572 1574 1575 1576 1578 1579 1580 1580 1581 1582 1582 1583 1583 1583 1584 1585 1586 1587 1587 1587 1587 1587 1588 1588 1588 1588 1589 1589 1590 1589 1589 1588 1588 1588 1588 1588 1587 1587 1587 1586 1586 1585 1583 1582 1581 1580 1579 1577 1577 1576 1576 1576 1574 1571 1570 1570 1569 1568 1567 1567 1565 1565 1564 1563 1563 1562 1561 1561
1554 1557 1560 1561 1561 1561 1561 1561 1561 1561 1562 1562 1562 1563 1564 1565 1567 1568 1569 1570 1572 1573 1575 1576 1577 1578 1579 1579 1580 1580 1580 1581 1581 1582 1583 1584 1584 1584 1584 1584 1584 1584 1584 1585 1586 1586 1586 1586 1585 1584 1584 1585 1585 1584 1584 1584 1584 1583 1582 1581 1580 1579 1577 1576 1574 1573 1573 1573 1573 1572 1569 1568 1568 1567 1566 1566 1565 1563 1563 1562 1561 1561 1560 1559 1559
1551 1552 1555 1556 1557 1557 1558 1558 1558 1559 1560 1561 1562 1562 1563 1563 1564 1564 1565 1566 1567 1568 1569 1571 1572 1574 1575 1576 1576 1576 1576 1577 1578 1578 1579 1580 1581 1581 1581 1580 1580 1579 1579 1580 1581 1582 1582 1582 1582 1581 1581 1581 1581 1581 1581 1581 1581 1581 1580 1578 1577 1576 1575 1573 1571 1570 1570 1569 1570 1569 1567 1565 1565 1565 1564 1564 1563 1561 1560 1560 1559 1559 1558 1557 1557
1547 1548 1550 1551 1552 1553 1554 1554 1554 1555 1555 1556 1558 1559 1560 1562 1562 1562 1562 1563 1562 1563 1563 1565 1566 1568 1569 1571 1572 1572 1572 1572 1573 1574 1575 1576 1576 1577 1577 1577 1577 1576 1576 1577 1578 1577 1578 1578 1578 1578 1577 1577 1577 1577 1577 1577 1577 1577 1576 1574 1574 1574 1572 1570 1568 1567 1567 1566 1566 1567 1565 1563 1563 1563 1562 1561 1561 1559 1558 1557 1557 1556 1556 1555 1555
1543 1545 1547 1548 1549 1549 1550 1551 1551 1551 1552 1552 1553 1554 1556 1557 1558 1558 1559 1559 1559 1559 1559 1560 1561 1562 1563 1565 1566 1567 1567 1568 1568 1569 1570 1571 1571 1572 1572 1573 1573 1571 1572 1574 1575 1574 1574 1574 1574 1574 1573 1573 1574 1573 1573 1573 1573 1573 1572 1571 1571 1570 1568 1567 1566 1565 1564 1562 1562 1564 1563 1560 1560 1560 1560 1559 1558 1556 1555 1554 1554 1554 1553 1553 1553